Paynesville, MN

4:34 AM CST on February 25, 2017 (GMT -0600)
Paynesville

Weather History for KPEX - February, 2013

Change the Weather History Date:

Friday, February 22, 2013

  Actual Average (KLJF) Record (KLJF)
Temperature  
Mean Temperature 20 °F -  
Max Temperature 24 °F 32 °F 55 °F (2017)
Min Temperature 16 °F 13 °F -17 °F (1952)
Degree Days  
Heating Degree Days 44    
Moisture  
Dew Point 17 °F    
Average Humidity 86    
Maximum Humidity 93    
Minimum Humidity 77    
Precipitation  
Precipitation 0.00 in - - ()
Sea Level Pressure  
Sea Level Pressure 29.92 in    
Wind  
Wind Speed 7 mph (NNW)    
Max Wind Speed 10 mph    
Max Gust Speed 16 mph    
Visibility 8 miles    
Events Snow    
Averages and records for this station are not official NWS values.
T = Trace of Precipitation, MM = Missing Value Source: NWS Daily Summary

Daily Weather History Graph

Daily Weather History Graph

Search for Another Location

Airport or City:

Trip Planner

Search our weather history database for the weather conditions in past years. The results will help you decide how hot, cold, wet, or windy it might be!

Date:

Astronomy

Feb. 22, 2013 Rise Set
Actual Time 7:08 AM CST 5:56 PM CST
Civil Twilight 6:38 AM CST 6:26 PM CST
Nautical Twilight 6:04 AM CST 7:01 PM CST
Astronomical Twilight 5:30 AM CST 7:35 PM CST
Moon 3:03 PM CST (2/22) 5:00 AM CST (2/22)
Length of Visible Light 11h 47m
Length of Day
10h 47m
Waxing Gibbous, 90% of the Moon is Illuminated
Feb 22
Waxing Gibbous
Feb 25
Full
Mar 4
Last Quarter
Mar 11
New
Mar 19
First Quarter

Hourly Weather History & Observations

Time (CST) Temp. Windchill Dew Point Humidity Pressure Visibility Wind Dir Wind Speed Gust Speed Precip Events Conditions
12:13 AM 19.4 °F 7.9 °F 14.9 °F 83% 30.07 in 10.0 mi NE 10.4 mph 16.1 mph N/A   Overcast
12:33 AM 19.4 °F 7.9 °F 15.3 °F 84% 30.06 in 10.0 mi NE 10.4 mph - N/A   Overcast
12:53 AM 19.2 °F 8.4 °F 15.3 °F 85% 30.05 in 10.0 mi NE 9.2 mph - N/A   Overcast
1:13 AM 19.2 °F 9.3 °F 15.4 °F 85% 30.04 in 10.0 mi NE 8.1 mph - N/A   Overcast
1:33 AM 19.0 °F 9.0 °F 15.3 °F 85% 30.03 in 10.0 mi NE 8.1 mph - N/A   Mostly Cloudy
1:53 AM 18.9 °F 8.8 °F 15.3 °F 86% 30.01 in 10.0 mi NNE 8.1 mph - N/A   Overcast
2:13 AM 19.0 °F 7.5 °F 15.4 °F 86% 30.01 in 10.0 mi NE 10.4 mph - N/A   Overcast
2:33 AM 19.0 °F 9.0 °F 15.6 °F 87% 30.00 in 10.0 mi NE 8.1 mph - N/A   Overcast
2:54 AM 19.0 °F 11.1 °F 15.8 °F 87% 30.00 in 10.0 mi NE 5.8 mph - N/A   Overcast
3:13 AM 19.2 °F 11.3 °F 15.8 °F 87% 29.99 in 10.0 mi NE 5.8 mph - N/A   Overcast
3:33 AM 19.2 °F 9.3 °F 16.0 °F 87% 29.99 in 7.0 mi NE 8.1 mph - N/A Snow Light Snow
3:53 AM 19.2 °F 11.3 °F 16.5 °F 89% 29.97 in 3.0 mi NE 5.8 mph - N/A Snow Light Snow
4:13 AM 19.2 °F 11.3 °F 16.7 °F 90% 29.98 in 2.5 mi NE 5.8 mph - N/A Snow Light Snow
4:33 AM 19.2 °F 11.3 °F 16.9 °F 91% 29.97 in 2.5 mi NE 5.8 mph - N/A Snow Light Snow
4:53 AM 19.2 °F 12.5 °F 17.1 °F 91% 29.97 in 4.0 mi NNE 4.6 mph - N/A Snow Light Snow
5:13 AM 19.2 °F 12.5 °F 17.2 °F 92% 29.97 in 2.0 mi NNE 4.6 mph - N/A Snow Light Snow
5:33 AM 19.2 °F 12.5 °F 17.4 °F 93% 29.96 in 1.5 mi North 4.6 mph - N/A Snow Light Snow
5:53 AM 19.2 °F 12.5 °F 17.4 °F 93% 29.96 in 1.8 mi North 4.6 mph - N/A Snow Light Snow
6:13 AM 19.2 °F 11.3 °F 17.4 °F 93% 29.95 in 2.0 mi NNE 5.8 mph - N/A Snow Light Snow
6:33 AM 19.4 °F 11.5 °F 17.6 °F 93% 29.95 in 2.5 mi NNE 5.8 mph - N/A Snow Light Snow
6:54 AM 19.2 °F 11.3 °F 17.4 °F 93% 29.95 in 5.0 mi NNE 5.8 mph - N/A Snow Light Snow
7:13 AM 19.4 °F 12.8 °F 17.6 °F 93% 29.95 in 5.0 mi North 4.6 mph - N/A Snow Light Snow
7:33 AM 19.6 °F 10.6 °F 17.6 °F 92% 29.94 in 7.0 mi NNE 6.9 mph - N/A Snow Light Snow
7:53 AM 19.9 °F 13.4 °F 17.6 °F 91% 29.94 in 7.0 mi North 4.6 mph - N/A Snow Light Snow
8:13 AM 20.3 °F 12.5 °F 18.0 °F 91% 29.94 in 5.0 mi NNE 5.8 mph - N/A Snow Light Snow
8:33 AM 20.7 °F 13.0 °F 18.1 °F 90% 29.94 in 4.0 mi North 5.8 mph - N/A Snow Light Snow
8:53 AM 20.8 °F 10.4 °F 17.6 °F 87% 29.93 in 3.0 mi NNE 9.2 mph - N/A Snow Light Snow
9:13 AM 20.8 °F 12.1 °F 17.6 °F 87% 29.93 in 3.0 mi North 6.9 mph - N/A Snow Light Snow
9:33 AM 21.0 °F 12.4 °F 17.1 °F 85% 29.93 in 7.0 mi NE 6.9 mph - N/A Snow Light Snow
9:53 AM 21.2 °F 14.9 °F 17.2 °F 85% 29.92 in 7.0 mi NE 4.6 mph - N/A Snow Light Snow
10:13 AM 21.6 °F 14.0 °F 17.6 °F 85% 29.92 in 10.0 mi NNE 5.8 mph - N/A Snow Light Snow
10:33 AM 21.9 °F 12.5 °F 17.2 °F 82% 29.91 in 10.0 mi NE 8.1 mph - N/A   Overcast
11:13 AM 22.1 °F 15.9 °F 17.6 °F 83% 29.91 in 10.0 mi NNE 4.6 mph - N/A   Mostly Cloudy
11:33 AM 22.6 °F 16.5 °F 17.6 °F 81% 29.91 in 10.0 mi North 4.6 mph - N/A   Overcast
11:53 AM 23.0 °F 17.0 °F 17.6 °F 80% 29.90 in 10.0 mi North 4.6 mph - N/A   Overcast
12:13 PM 23.4 °F 16.2 °F 18.0 °F 80% 29.90 in 10.0 mi North 5.8 mph - N/A   Overcast
12:33 PM 24.3 °F 15.4 °F 18.1 °F 77% 29.89 in 10.0 mi NNW 8.1 mph - N/A   Overcast
12:53 PM 23.9 °F 15.8 °F 18.3 °F 79% 29.89 in 7.0 mi NNW 6.9 mph - N/A   Overcast
1:13 PM 23.5 °F 15.4 °F 18.1 °F 80% 29.88 in 5.0 mi NW 6.9 mph - N/A Snow Light Snow
1:33 PM 23.9 °F 18.0 °F 18.1 °F 79% 29.87 in 7.0 mi North 4.6 mph - N/A Snow Light Snow
1:53 PM 23.9 °F 15.0 °F 18.3 °F 79% 29.87 in 7.0 mi NW 8.1 mph - N/A Snow Light Snow
2:13 PM 24.1 °F 16.0 °F 18.3 °F 79% 29.87 in 10.0 mi NW 6.9 mph - N/A Snow Light Snow
2:33 PM 23.9 °F 15.8 °F 18.5 °F 80% 29.87 in 10.0 mi WNW 6.9 mph - N/A Snow Light Snow
2:53 PM 24.3 °F 16.3 °F 18.5 °F 79% 29.87 in 10.0 mi NW 6.9 mph - N/A   Overcast
3:13 PM 23.7 °F 15.6 °F 18.5 °F 80% 29.87 in 10.0 mi WNW 6.9 mph - N/A Snow Light Snow
3:33 PM 23.7 °F 14.7 °F 18.5 °F 80% 29.88 in 5.0 mi WNW 8.1 mph - N/A Snow Light Snow
3:53 PM 23.7 °F 14.0 °F 19.0 °F 82% 29.88 in 4.0 mi WNW 9.2 mph - N/A Snow Light Snow
4:13 PM 23.5 °F 14.5 °F 18.9 °F 82% 29.88 in 10.0 mi WNW 8.1 mph - N/A Snow Light Snow
4:33 PM 23.4 °F 14.3 °F 19.0 °F 84% 29.88 in 7.0 mi NW 8.1 mph - N/A Snow Light Snow
4:53 PM 23.2 °F 17.2 °F 19.2 °F 85% 29.89 in 5.0 mi WNW 4.6 mph - N/A Snow Light Snow
5:13 PM 23.0 °F 15.8 °F 19.2 °F 85% 29.89 in 5.0 mi WNW 5.8 mph - N/A Snow Light Snow
5:33 PM 22.8 °F 15.5 °F 19.0 °F 85% 29.89 in 4.0 mi WNW 5.8 mph - N/A Snow Light Snow
5:53 PM 22.6 °F 16.5 °F 18.9 °F 85% 29.89 in 5.0 mi WNW 4.6 mph - N/A Snow Light Snow
6:13 PM 22.6 °F 15.3 °F 18.9 °F 85% 29.89 in 7.0 mi WNW 5.8 mph - N/A Snow Light Snow
6:33 PM 22.3 °F 16.1 °F 19.0 °F 87% 29.89 in 7.0 mi WNW 4.6 mph - N/A Snow Light Snow
6:53 PM 22.1 °F 15.9 °F 18.9 °F 87% 29.89 in 7.0 mi WNW 4.6 mph - N/A Snow Light Snow
7:14 PM 21.9 °F 14.5 °F 18.9 °F 88% 29.89 in 10.0 mi West 5.8 mph - N/A Snow Light Snow
7:33 PM 21.7 °F 17.0 °F 18.5 °F 87% 29.89 in 10.0 mi West 3.5 mph - N/A Snow Light Snow
7:53 PM 21.0 °F 13.4 °F 18.1 °F 89% 29.89 in 10.0 mi West 5.8 mph - N/A Snow Light Snow
8:13 PM 20.7 °F 15.8 °F 18.0 °F 89% 29.88 in 10.0 mi WNW 3.5 mph - N/A Snow Light Snow
8:33 PM 20.3 °F 12.5 °F 17.6 °F 89% 29.88 in 10.0 mi West 5.8 mph - N/A   Overcast
8:53 PM 20.1 °F 15.2 °F 17.6 °F 90% 29.88 in 10.0 mi West 3.5 mph - N/A   Overcast
9:13 PM 19.9 °F 13.4 °F 17.4 °F 90% 29.87 in 10.0 mi West 4.6 mph - N/A   Overcast
9:33 PM 19.6 °F 9.7 °F 17.4 °F 91% 29.87 in 10.0 mi West 8.1 mph - N/A Snow Light Snow
9:53 PM 19.2 °F 11.3 °F 16.7 °F 90% 29.87 in 10.0 mi West 5.8 mph - N/A Snow Light Snow
10:13 PM 18.9 °F 8.0 °F 16.5 °F 91% 29.86 in 10.0 mi West 9.2 mph - N/A   Overcast
10:33 PM 18.5 °F 10.4 °F 16.2 °F 91% 29.86 in 10.0 mi West 5.8 mph - N/A   Overcast
10:53 PM 18.3 °F 10.2 °F 15.8 °F 90% 29.86 in 10.0 mi West 5.8 mph - N/A   Overcast
11:13 PM 18.0 °F 7.7 °F 15.4 °F 90% 29.86 in 10.0 mi West 8.1 mph - N/A   Overcast
11:33 PM 17.4 °F 6.2 °F 14.9 °F 90% 29.86 in 10.0 mi West 9.2 mph - N/A   Overcast
11:53 PM 16.7 °F 5.3 °F 14.4 °F 91% 29.87 in 10.0 mi West 9.2 mph - N/A   Overcast